This is the latest recevied weather packets stored in our database for station/object KA7KDX-4. If no packets are shown the sender has not sent any weather packets the latest 10 day(s).
| Time | Temp. | Humidity | Pressure | Rain* | Wind** | Luminosity | Snow |
|---|---|---|---|---|---|---|---|
| 1777978505 | 13.33° C | 56% | 1004.9 hPa | 0 mm | - | - | - |
| 1777978205 | 13.33° C | 55% | 1004.8 hPa | 0 mm | - | - | - |
| 1777977905 | 13.33° C | 54% | 1004.7 hPa | 0 mm | - | - | - |
| 1777977605 | 13.33° C | 55% | 1004.7 hPa | 0 mm | - | - | - |
| 1777977305 | 13.33° C | 57% | 1004.7 hPa | 0 mm | - | - | - |
| 1777977005 | 13.33° C | 56% | 1004.6 hPa | 0 mm | - | - | - |
| 1777976706 | 13.33° C | 54% | 1004.5 hPa | 0 mm | - | - | - |
| 1777976406 | 13.33° C | 55% | 1004.5 hPa | 0 mm | - | - | - |
| 1777976106 | 13.33° C | 55% | 1004.6 hPa | 0 mm | - | - | - |
| 1777975805 | 13.33° C | 55% | 1004.7 hPa | 0 mm | - | - | - |
| 1777975505 | 13.33° C | 55% | 1004.7 hPa | 0 mm | - | - | - |
| 1777975205 | 13.33° C | 56% | 1004.8 hPa | 0 mm | - | - | - |
| 1777974905 | 13.33° C | 53% | 1004.8 hPa | 0 mm | - | - | - |
| 1777974605 | 13.33° C | 54% | 1004.8 hPa | 0.25 mm | - | - | - |
| 1777974305 | 13.33° C | 56% | 1004.9 hPa | 1.02 mm | - | - | - |
| 1777974006 | 13.33° C | 56% | 1004.8 hPa | 1.27 mm | - | - | - |
| 1777973706 | 13.33° C | 55% | 1004.7 hPa | 0.76 mm | - | - | - |
| 1777973406 | 13.89° C | 53% | 1004.7 hPa | 0.25 mm | - | - | - |
| 1777973106 | 13.89° C | 54% | 1004.9 hPa | 0 mm | - | - | - |
| 1777972805 | 13.89° C | 55% | 1004.9 hPa | 0 mm | - | - | - |
| 1777972505 | 13.89° C | 56% | 1004.9 hPa | 0 mm | - | - | - |
| 1777972205 | 13.89° C | 54% | 1004.8 hPa | 0 mm | - | - | - |
| 1777971905 | 13.89° C | 55% | 1004.8 hPa | 0 mm | - | - | - |
| 1777971605 | 13.89° C | 52% | 1004.5 hPa | 0 mm | - | - | - |
| 1777971306 | 13.89° C | 54% | 1004.5 hPa | 0 mm | - | - | - |
* Rain latest hour (hover to see other rain measurements)
** Current wind speed in m/s (hover to see current wind gust speed)